Volver al catálogo

SCOUT G-1 DEB

ActivoPO
NORAD 14223·DEBRIS·🇺🇸 United States

Lanzado Jun 27, 1983 desde Vandenberg Space Force Base

Loading…

Próximos Pases (próximas 24 horas)

TLE

ActualizadoSource: Space-Track

Época: Sep 14, 2026, 11:26 UTC

1 14223U 83063D   26257.47704083  .00000494  00000-0  14438-3 0  9997
2 14223  81.6550 164.1802 0050753 210.5010 274.1799 14.41825987258283

Sigue SCOUT G-1 DEB en tiempo real con AllMySat

Download on the App Store